K0HYD Weather Reports


Display with metric or nautical units.
time (UTC)temp
F
wind
direction
speed
MPH
gust
MPH
rain 1hr
in
rain 24hr
in
rain mn
in
humidity
%
barometer
mb
20260906222753 101 170 0.0 1.0 0.00 0.00 0.00 32 1007.9
20260906221251 99 158 0.0 6.0 0.00 0.00 0.00 36 1007.9
20260906215750 100 160 0.0 2.0 0.00 0.00 0.00 34 1008.1
20260906214250 101 229 0.0 5.0 0.00 0.00 0.00 33 1008.3
20260906212749 103 232 0.0 6.0 0.00 0.00 0.00 32 1008.6
20260906211247 103 116 0.0 6.0 0.00 0.00 0.00 33 1008.9
20260906205746 102 85 0.0 6.0 0.00 0.00 0.00 33 1009.1
20260906204245 100 142 0.0 1.0 0.00 0.00 0.00 35 1009.4
20260906202744 100 146 0.0 3.0 0.00 0.00 0.00 34 1009.7
20260906201244 101 151 0.0 6.0 0.00 0.00 0.00 34 1009.9
20260906195743 100 205 0.0 5.0 0.00 0.00 0.00 35 1010.0
20260906194242 99 140 0.0 1.0 0.00 0.00 0.00 36 1010.2
20260906192741 100 190 0.0 1.0 0.00 0.00 0.00 36 1010.5
20260906191240 99 132 1.0 1.0 0.00 0.00 0.00 37 1010.7
20260906185739 101 224 0.0 1.0 0.00 0.00 0.00 35 1010.9
20260906184238 100 232 0.0 1.0 0.00 0.00 0.00 36 1011.1
20260906182737 100 238 0.0 5.0 0.00 0.00 0.00 36 1011.4
20260906181236 99 145 2.0 6.0 0.00 0.00 0.00 36 1011.7
20260906175735 98 200 0.0 1.0 0.00 0.00 0.00 37 1012.0
20260906174234 99 215 0.0 5.0 0.00 0.00 0.00 37 1012.2
20260906172733 99 207 0.0 1.0 0.00 0.00 0.00 37 1012.5
20260906165731 100 139 0.0 6.0 0.00 0.00 0.00 36 1013.0
20260906162729 99 205 0.0 1.0 0.00 0.00 0.00 38 1013.3
20260906161228 99 249 0.0 0.0 0.00 0.00 0.00 38 1013.2
20260906155727 97 134 0.0 1.0 0.00 0.00 0.00 41 1013.1
20260906154226 96 263 0.0 1.0 0.00 0.00 0.00 42 1013.1
20260906152726 95 248 0.0 1.0 0.00 0.00 0.00 43 1012.9
20260906151225 94 240 0.0 1.0 0.00 0.00 0.00 45 1012.9
20260906145724 92 256 0.0 1.0 0.00 0.00 0.00 46 1012.9
20260906144222 90 215 0.0 0.0 0.00 0.00 0.00 51 1012.8
20260906141221 86 215 0.0 1.0 0.00 0.00 0.00 58 1012.9
20260906135720 83 224 0.0 0.0 0.00 0.00 0.00 63 1012.9
20260906134219 80 222 0.0 0.0 0.00 0.00 0.00 68 1012.9
20260906132718 78 226 0.0 0.0 0.00 0.00 0.00 73 1012.7
20260906131217 76 147 0.0 0.0 0.00 0.00 0.00 77 1012.5
20260906124215 73 146 0.0 0.0 0.00 0.00 0.00 80 1012.1
20260906122714 72 147 0.0 0.0 0.00 0.00 0.00 81 1011.8
20260906121213 72 146 0.0 0.0 0.00 0.00 0.00 81 1011.6
20260906115712 72 146 0.0 0.0 0.00 0.00 0.00 81 1011.4
20260906114211 72 146 0.0 0.0 0.00 0.00 0.00 80 1011.4
20260906112710 72 146 0.0 0.0 0.00 0.00 0.00 80 1011.2
20260906111209 72 146 0.0 0.0 0.00 0.00 0.00 79 1011.1
20260906104207 73 147 0.0 0.0 0.00 0.00 0.00 78 1011.0
20260906102706 74 146 0.0 0.0 0.00 0.00 0.00 76 1011.0
20260906101205 74 146 0.0 0.0 0.00 0.00 0.00 75 1011.0
20260906095704 75 146 0.0 0.0 0.00 0.00 0.00 73 1010.9
20260906092703 77 147 0.0 0.0 0.00 0.00 0.00 69 1010.9
20260906091201 78 146 0.0 0.0 0.00 0.00 0.00 68 1010.8
20260906085701 78 147 0.0 0.0 0.00 0.00 0.00 67 1010.9
20260906084200 78 146 0.0 1.0 0.00 0.00 0.00 68 1010.7
20260906082659 78 146 0.0 0.0 0.00 0.00 0.00 69 1010.6
20260906081158 77 146 0.0 0.0 0.00 0.00 0.00 69 1010.7
20260906075656 78 147 0.0 0.0 0.00 0.00 0.00 67 1010.7
20260906071154 79 149 0.0 0.0 0.00 0.00 0.00 65 1010.5
20260906065653 79 149 0.0 0.0 0.00 0.00 0.00 65 1010.5
20260906064152 79 149 0.0 0.0 0.00 0.00 0.00 63 1010.5
20260906061150 81 149 0.0 0.0 0.00 0.00 0.00 61 1010.4
20260906055649 80 149 0.0 0.0 0.00 0.00 0.00 62 1010.4
20260906054148 81 150 0.0 0.0 0.00 0.00 0.00 60 1010.5
20260906052647 82 149 0.0 0.0 0.00 0.00 0.00 58 1010.6
20260906045645 86 149 0.0 0.0 0.00 0.00 0.00 53 1010.5
20260906044144 86 149 0.0 1.0 0.00 0.00 0.00 53 1010.3
20260906041142 86 143 0.0 3.0 0.00 0.00 0.00 53 1010.3
20260906035641 86 140 0.0 1.0 0.00 0.00 0.00 53 1010.3
20260906032639 87 140 0.0 1.0 0.00 0.00 0.00 51 1010.1
20260906031138 87 134 0.0 3.0 0.00 0.00 0.00 51 1010.0
20260906025637 87 145 0.0 1.0 0.00 0.00 0.00 50 1009.9
20260906024136 88 136 0.0 1.0 0.00 0.00 0.00 49 1009.8
20260906022635 88 147 0.0 1.0 0.00 0.00 0.00 50 1009.5
20260906021134 87 136 0.0 1.0 0.00 0.00 0.00 50 1009.4
20260906015633 86 139 0.0 0.0 0.00 0.00 0.00 52 1009.3
20260906014132 87 139 0.0 0.0 0.00 0.00 0.00 51 1009.2
20260906012631 88 139 0.0 0.0 0.00 0.00 0.00 50 1009.0
20260906011131 90 138 0.0 0.0 0.00 0.00 0.00 46 1008.7
20260906005630 92 139 0.0 0.0 0.00 0.00 0.00 44 1008.6
20260906004129 93 146 0.0 1.0 0.00 0.00 0.00 43 1008.6
20260906002628 94 142 0.0 2.0 0.00 0.00 0.00 41 1008.4
20260906001127 95 134 0.0 5.0 0.00 0.00 0.00 39 1008.5
20260905235626 96 139 0.0 2.0 0.00 0.00 0.00 38 1008.7
20260905234125 97 136 0.0 5.0 0.00 0.00 0.00 37 1008.6
20260905225622 101 145 0.0 6.0 0.00 0.00 0.00 33 1008.6
20260905224121 101 155 1.0 7.0 0.00 0.00 0.00 33 1008.6